Location: Newark
(51.7378°N, 19.8125°E)
Time: 23:35:33
(UTC+00:00)

Envisat - Pass Details

Date: 14 December 2019
Orbit: 764 x 766 km, 98.1° (Epoch: 21 January)

Event Time Altitude Azimuth Distance (km) Brightness Sun altitude
Rises 05:28:21 0° 16° (NNE) 3,247 6.2 -10.3°
Reaches altitude 10° 05:30:41 10° 19° (NNE) 2,316 5.4 -9.9°
Maximum altitude 05:35:47 68° 102° (ESE) 826 3.4 -9.2°
Drops below altitude 10° 05:40:50 10° 186° (S) 2,298 5.8 -8.5°
Sets 05:43:08 0° 189° (S) 3,219 6.5 -8.2°
